Temp
63 62 62 63 63 63 63 63 63 63 63 63 63 63 63 63 63 79 92 96 96 80 82 106 105 106 107 104 107 109 96 89 90 90 92 101 97 101 102 96 96 99 95 95 97
62 62 62 62 62 62 62 62 62 62 62 63 62 63 63 63 83 93 91 82 80 81 100 102 101 105 102 104 105 101 95 91 99 99 97 99 98 98 97 93 92 94 96 96 96
62 62 62 62 62 62 62 62 62 62 62 62 63 63 63 69 88 100 82 81 80 85 108 108 108 105 100 105 102 102 94 99 100 100 103 100 97 102 96 90 93 89 91 93 94
61 61 61 61 61 62 62 62 61 61 61 62 63 64 64 81 84 99 82 80 80 100 106 105 104 99 99 97 102 95 100 100 102 102 102 99 101 98 98 97 99 96 95 94 93
61 61 61 61 61 61 61 61 61 61 61 62 64 64 72 88 95 98 81 83 97 99 103 103 100 101 97 99 100 98 99 101 104 102 103 102 98 96 95 99 99 97 95 94 95
60 60 60 60 60 60 60 60 60 60 61 62 64 65 83 87 105 101 102 100 103 103 104 106 103 105 101 99 99 100 99 100 104 101 101 98 98 98 95 99 95 94 94 96 96
59 59 59 59 60 60 60 59 60 61 62 63 64 77 90 95 107 107 106 104 108 107 104 108 107 102 103 98 102 101 96 99 101 101 98 102 93 91 97 97 93 94 95 95 95
59 59 59 59 59 59 59 59 59 64 63 65 65 85 92 105 110 105 108 106 109 111 109 109 108 104 102 104 100 97 98 90 98 100 100 98 81 94 98 96 93 94 94 94 95
59 59 59 59 59 58 58 58 60 65 66 66 79 89 93 91 99 107 109 103 105 107 109 106 106 101 102 94 92 95 87 89 91 101 98 95 85 95 100 97 93 94 93 94 94
58 58 58 58 58 57 57 58 64 66 71 86 91 88 95 94 103 105 110 108 101 102 99 98 99 95 96 93 83 87 89 91 89 96 97 94 91 95 99 98 95 95 94 94 94
58 58 58 57 57 57 64 84 83 82 90 94 96 96 98 106 107 102 106 103 103 98 90 95 91 87 93 96 96 94 91 89 93 98 94 93 92 94 97 98 96 95 95 95 95
58 57 57 57 57 56 67 90 95 95 87 99 99 101 102 104 94 99 106 96 94 88 95 91 87 96 99 98 94 92 88 88 94 97 95 93 92 95 97 97 98 97 96 96 97
57 57 57 56 56 67 91 94 103 101 88 96 100 98 99 103 97 97 102 99 93 90 92 89 94 99 95 92 90 91 89 89 89 93 96 93 89 92 96 99 100 100 99 100 98
57 57 56 55 64 91 92 99 102 102 81 88 92 97 102 100 94 105 105 100 95 90 93 92 98 93 91 90 93 87 95 92 90 88 81 93 78 88 93 93 97 98 99 100 99
57 57 56 54 73 88 95 101 102 97 66 94 95 110 104 95 99 98 106 101 92 92 94 89 92 90 88 91 96 90 97 93 91 88 88 86 83 86 93 89 93 98 100 100 101
56 56 56 77 77 88 97 99 96 76 66 86 94 93 93 95 98 100 98 103 102 94 95 95 101 97 95 98 97 97 91 90 91 89 78 84 84 84 89 91 95 99 100 100 101
56 55 57 73 88 97 98 92 74 69 90 86 87 93 92 89 93 94 90 88 86 80 82 90 91 97 99 93 97 93 88 76 73 75 75 88 83 85 94 96 97 97 98 101 102
55 54 67 75 91 91 89 81 65 80 84 92 93 92 87 92 92 90 88 85 92 91 87 81 78 91 97 93 88 89 89 79 67 72 76 85 76 86 95 97 98 99 100 102 102
53 84 87 89 87 90 83 70 72 82 90 89 90 86 86 91 91 89 88 87 91 94 83 83 83 97 97 98 97 88 83 94 83 84 79 83 85 91 94 94 96 95 97 99 101
64 78 86 96 91 85 77 68 81 91 93 91 82 87 82 87 87 88 87 93 91 96 99 91 81 94 95 99 98 93 96 82 83 68 68 78 78 82 85 89 91 93 94 97 99
67 78 90 95 90 80 72 77 83 94 93 87 85 86 87 87 89 88 87 93 96 96 98 96 89 87 92 87 87 88 86 88 90 85 75 72 78 89 88 90 91 94 95 96 98
73 73 89 92 74 80 76 82 77 90 94 89 89 88 88 90 88 87 87 91 99 99 89 95 90 82 85 94 97 95 89 88 79 74 81 79 80 97 94 95 94 95 96 97 99
67 77 92 88 71 77 82 84 88 88 89 88 85 89 91 87 82 89 90 99 99 96 92 94 86 78 80 89 93 88 91 92 90 87 78 75 79 95 95 93 95 93 95 96 96
68 70 81 81 82 79 79 80 81 91 88 90 89 91 88 85 90 86 89 96 99 97 79 89 88 80 78 81 88 82 87 89 88 80 80 81 82 86 90 91 93 93 94 94 94
70 71 77 74 76 78 81 82 80 81 86 89 86 86 85 80 84 85 91 93 95 77 92 93 80 85 87 90 91 88 86 88 85 85 79 84 85 89 88 90 91 93 92 91 91
66 69 75 72 74 74 71 77 79 83 85 81 81 86 86 82 85 83 89 89 86 92 90 93 80 84 83 89 89 85 89 89 88 88 87 87 85 94 93 92 90 90 90 90 89
74 73 68 65 74 72 74 76 79 84 88 90 87 85 84 88 93 95 97 98 94 88 85 86 84 79 74 85 85 77 84 87 88 90 89 81 88 94 89 88 88 89 91 90 91
MSLP
1016.97 1016.58 1016.14 1015.80 1015.35 1014.80 1014.49 1014.34 1014.01 1013.48 1013.15 1012.84 1012.59 1012.34 1012.16 1011.98 1011.82 1011.17 1008.46 1006.72 1006.79 1007.09 1007.54 1006.05 1005.67 1004.81 1004.17 1002.95 1001.48 1000.59 998.78 998.98 999.51 999.87 1000.69 1001.09 1001.97 1003.10 1004.04 1004.85 1005.51 1006.16 1007.41 1009.07 1010.54
1017.14 1016.70 1016.23 1015.79 1015.42 1014.86 1014.28 1013.99 1013.91 1013.51 1013.04 1012.73 1012.51 1012.22 1012.04 1011.89 1010.55 1008.12 1006.64 1006.70 1006.97 1007.16 1006.65 1005.39 1004.41 1003.80 1002.84 1001.58 1000.76 1000.00 998.70 999.77 1000.13 1000.17 1000.49 1001.11 1002.09 1002.67 1003.53 1004.94 1005.88 1006.71 1008.30 1009.76 1010.63
1017.40 1016.78 1016.28 1015.81 1015.39 1014.95 1014.32 1013.74 1013.49 1013.31 1013.01 1012.60 1012.28 1012.10 1011.97 1011.64 1009.12 1005.27 1005.99 1006.38 1007.00 1007.07 1005.46 1004.66 1003.78 1003.16 1001.78 1000.97 1000.40 999.35 999.26 999.97 1000.49 1000.85 1000.57 1001.29 1002.04 1001.98 1002.57 1004.15 1005.98 1007.15 1008.58 1009.82 1010.54
1017.61 1017.02 1016.39 1015.82 1015.36 1014.88 1014.34 1013.68 1013.14 1012.92 1012.71 1012.53 1012.10 1011.92 1011.95 1010.90 1006.50 1005.52 1006.34 1006.59 1006.99 1006.60 1005.45 1004.45 1003.64 1002.56 1001.06 1000.55 1000.53 999.63 1000.15 1000.17 1000.53 1001.10 1000.68 1001.01 1001.84 1002.30 1003.21 1004.07 1006.09 1007.71 1008.86 1009.72 1010.34
1017.68 1017.14 1016.49 1015.88 1015.30 1014.78 1014.22 1013.63 1012.94 1012.52 1012.30 1012.14 1011.96 1011.89 1011.72 1008.62 1005.12 1005.56 1006.47 1006.83 1006.81 1006.52 1004.96 1003.92 1003.02 1001.87 1000.63 1000.32 1000.42 999.71 1000.17 1000.34 1000.62 1001.15 1000.78 1001.68 1002.11 1003.35 1004.31 1005.39 1006.78 1008.03 1009.08 1009.68 1010.06
1017.77 1017.12 1016.52 1015.86 1015.19 1014.61 1014.03 1013.42 1012.80 1012.15 1011.84 1011.80 1011.70 1011.84 1010.13 1006.09 1004.47 1005.21 1005.56 1006.09 1005.59 1005.37 1004.35 1003.51 1002.48 1001.65 1000.75 1000.44 1000.14 1000.38 1000.45 1000.37 1000.48 1001.22 1001.35 1001.52 1002.64 1003.50 1005.21 1006.21 1007.26 1008.25 1008.88 1009.42 1009.95
1017.73 1017.10 1016.43 1015.81 1015.08 1014.38 1013.81 1013.14 1012.51 1011.79 1011.39 1011.42 1011.46 1010.90 1007.81 1004.75 1004.27 1004.72 1005.00 1004.95 1004.63 1004.31 1003.51 1003.20 1002.68 1002.52 1001.09 1000.71 1000.88 1000.55 1000.11 1000.27 1000.35 1000.96 1001.30 1001.67 1002.27 1003.56 1005.32 1006.34 1007.30 1008.01 1008.66 1009.21 1009.87
1017.66 1016.99 1016.33 1015.62 1014.91 1014.14 1013.54 1012.92 1012.22 1011.65 1011.34 1011.21 1011.32 1009.89 1005.29 1004.40 1004.21 1004.65 1004.54 1004.39 1004.35 1003.97 1003.39 1003.34 1003.32 1002.48 1001.39 1001.02 1000.90 1000.18 999.42 999.17 1000.10 1000.62 1001.24 1001.88 1002.81 1003.77 1005.10 1006.05 1006.88 1007.68 1008.39 1009.14 1009.73
1017.62 1016.86 1016.17 1015.45 1014.64 1013.85 1013.18 1012.59 1011.89 1011.45 1011.27 1011.13 1010.42 1008.15 1004.27 1005.23 1004.40 1004.06 1004.02 1003.86 1004.16 1004.05 1003.77 1003.89 1003.43 1002.16 1001.49 1000.88 999.86 999.51 998.53 998.53 999.82 1000.49 1000.96 1001.68 1002.80 1003.48 1004.23 1005.30 1006.21 1007.22 1008.06 1008.71 1009.37
1017.61 1016.79 1015.97 1015.18 1014.39 1013.58 1012.65 1012.11 1011.55 1011.30 1010.84 1009.73 1008.28 1006.60 1004.15 1003.22 1003.27 1003.57 1003.60 1003.46 1003.71 1003.72 1003.82 1003.71 1002.78 1001.62 1000.81 999.96 998.24 998.17 997.91 998.48 999.22 1000.33 1000.57 1000.77 1001.54 1002.88 1003.53 1004.33 1005.51 1006.38 1007.39 1007.97 1008.67
1017.55 1016.71 1015.83 1014.86 1014.07 1013.39 1012.34 1010.55 1010.40 1009.26 1007.71 1004.65 1003.61 1002.60 1002.04 1001.83 1002.94 1003.12 1003.42 1003.39 1003.31 1003.25 1002.60 1002.65 1001.67 1000.35 999.58 999.23 998.53 998.18 998.30 998.41 998.97 999.90 1000.46 1000.20 1000.95 1002.12 1003.00 1003.56 1004.60 1005.54 1006.52 1007.16 1007.84
1017.48 1016.64 1015.64 1014.54 1013.60 1012.96 1012.36 1008.47 1006.19 1006.24 1004.65 1003.02 1002.60 1001.91 1001.77 1002.09 1002.17 1002.48 1003.07 1002.76 1002.57 1002.04 1001.79 1001.59 1000.48 999.54 999.39 999.06 999.20 999.28 999.16 999.00 999.10 999.71 1000.27 1000.00 1000.15 1001.38 1002.30 1002.59 1003.49 1004.62 1005.66 1006.33 1007.10
1017.37 1016.53 1015.54 1014.19 1013.09 1011.86 1009.19 1007.41 1006.41 1005.83 1003.84 1001.10 1001.00 1001.10 1001.46 1001.46 1000.79 1001.39 1002.19 1001.58 1001.53 1001.23 1000.68 999.88 999.24 999.22 999.31 999.58 999.54 999.26 999.03 998.69 999.12 999.84 1000.24 999.91 999.89 1000.35 1001.42 1002.15 1002.44 1003.64 1004.90 1005.50 1006.33
1017.26 1016.46 1015.62 1014.09 1012.68 1009.53 1007.41 1006.56 1006.42 1005.94 1003.19 999.76 999.97 999.85 1000.35 1000.85 1000.11 1000.59 1001.34 1000.89 1000.67 1000.17 999.98 999.68 999.04 999.30 999.62 999.34 999.46 998.72 999.09 999.04 999.28 999.66 999.35 999.98 998.91 999.68 1000.55 1001.41 1001.88 1002.50 1003.65 1004.77 1005.66
1016.94 1016.27 1015.61 1015.75 1012.72 1008.95 1006.95 1006.73 1006.53 1005.60 1001.21 997.60 998.30 998.24 999.13 999.80 998.84 999.78 1000.83 1000.49 999.78 999.58 999.67 999.08 998.86 999.36 999.16 998.75 999.13 998.53 998.97 999.56 999.57 999.54 998.84 999.22 999.17 998.37 999.85 1000.20 1001.10 1001.84 1002.32 1003.53 1004.79
1016.42 1015.93 1015.55 1012.20 1011.99 1008.91 1007.67 1007.00 1006.26 1004.04 999.16 997.56 997.77 998.01 998.41 998.92 998.32 999.03 1000.10 1000.25 999.83 999.48 999.21 998.21 998.89 999.04 998.73 998.70 998.82 999.07 999.62 999.86 999.97 999.48 998.52 998.82 998.75 998.04 998.38 999.03 999.66 1000.43 1001.22 1002.28 1003.59
1015.73 1014.83 1015.11 1013.27 1008.62 1007.70 1007.41 1006.53 1004.49 1001.17 998.27 996.60 996.94 997.25 997.16 997.61 997.72 998.18 999.19 999.43 999.03 998.87 998.45 998.58 998.52 998.60 998.42 998.16 998.76 999.27 999.33 999.16 999.03 998.64 998.01 998.02 998.59 998.12 998.47 999.24 999.67 1000.03 1000.68 1001.26 1002.59
1014.80 1013.22 1011.24 1010.89 1008.63 1008.61 1007.69 1005.64 1002.18 999.18 997.00 996.11 995.96 996.34 996.20 996.56 996.90 997.97 998.35 998.40 998.66 998.22 997.44 997.66 997.72 998.03 998.28 998.03 998.42 998.83 998.40 997.61 997.15 997.09 997.50 999.00 998.84 998.84 999.40 1000.09 1000.70 1001.02 1001.21 1001.26 1001.92
1014.10 1010.13 1008.40 1007.96 1008.67 1008.13 1006.52 1003.41 1000.36 998.10 996.60 995.86 995.72 995.32 995.63 995.73 996.04 996.80 997.18 997.24 997.45 997.35 996.77 996.45 996.60 997.19 997.81 997.86 997.95 998.30 998.35 997.90 997.52 997.62 997.66 997.75 998.62 999.26 999.90 1000.33 1000.61 1000.96 1001.14 1001.18 1001.54
1013.91 1009.72 1006.56 1006.10 1007.46 1007.41 1005.45 1001.53 999.65 998.25 996.75 996.24 995.27 995.06 994.59 994.74 995.07 995.35 995.83 996.09 996.27 996.79 996.41 995.60 995.94 996.07 997.14 997.69 997.53 997.62 998.11 998.13 998.27 997.76 997.40 997.24 998.07 998.49 999.91 1000.18 1000.88 1000.98 1001.18 1001.19 1001.74
1012.97 1007.98 1005.25 1006.07 1006.72 1005.56 1002.52 1000.21 999.35 997.66 996.89 996.81 995.92 994.63 994.26 993.95 993.98 994.21 994.78 995.26 995.60 995.83 996.47 996.12 995.98 996.16 996.97 997.39 997.16 998.00 997.99 997.73 997.36 997.34 997.04 997.10 997.12 998.62 999.72 1000.59 1000.90 1001.12 1001.51 1001.78 1002.10
1011.48 1006.90 1005.57 1005.77 1005.09 1002.89 1000.84 999.68 998.78 997.54 997.17 997.28 996.57 995.27 994.17 993.71 993.54 993.89 993.82 994.21 994.66 995.19 995.65 996.28 996.25 995.67 996.27 997.15 997.49 996.97 997.37 997.93 997.71 997.96 998.03 998.05 997.91 998.73 999.62 1000.38 1001.13 1001.25 1001.67 1002.16 1002.32
1011.33 1006.76 1004.52 1005.09 1002.47 1000.72 999.86 998.90 998.07 997.22 996.57 996.62 996.55 995.98 995.06 994.09 993.58 993.43 993.78 993.80 994.39 994.82 995.03 996.14 996.04 995.95 995.92 996.46 996.95 996.77 996.92 997.06 997.33 997.80 997.53 997.68 997.98 999.11 999.84 1000.43 1001.01 1001.63 1001.92 1002.46 1002.86
1011.65 1005.91 1003.87 1003.87 1002.66 1000.14 998.73 997.84 997.21 996.95 996.85 996.61 996.07 995.95 995.30 994.75 994.03 993.23 993.27 993.32 993.93 994.86 995.51 996.07 995.94 996.02 995.14 995.60 996.15 996.87 997.00 997.11 997.22 997.15 997.39 997.80 998.10 998.99 999.45 1000.15 1000.77 1001.76 1002.36 1002.72 1003.16
1011.16 1006.34 1004.05 1001.78 1001.51 1000.52 999.17 997.53 997.10 996.32 997.10 996.85 996.08 995.74 995.36 994.94 994.23 993.66 993.22 993.40 994.59 995.69 995.51 996.11 995.91 996.09 995.83 995.17 995.31 995.54 996.39 996.79 996.89 997.48 997.41 997.34 997.41 997.84 999.45 1000.48 1001.16 1001.98 1002.73 1003.21 1003.54
1010.67 1007.77 1005.64 1004.11 1002.64 1001.02 999.08 998.07 996.75 996.39 996.18 996.36 996.28 996.16 996.04 995.14 994.21 993.81 993.53 993.14 994.32 995.20 995.74 996.00 995.98 996.42 995.77 995.55 995.27 995.41 995.55 995.80 996.34 996.77 997.35 997.62 997.75 998.31 999.76 1000.91 1001.62 1002.42 1003.04 1003.33 1003.75
1010.89 1010.22 1008.95 1005.14 1002.51 1001.29 999.68 998.85 997.76 996.89 995.98 995.80 996.18 996.39 995.76 995.52 994.99 994.30 993.64 992.98 994.09 995.00 995.74 995.82 995.93 996.35 995.93 995.82 995.62 995.84 996.07 996.03 996.21 996.50 996.90 997.54 997.92 998.46 999.92 1001.18 1001.96 1002.50 1002.92 1003.18 1003.46
Wind_Speed
21 21 20 19 18 18 17 15 14 14 12 11 10 10 9 9 9 10 11 1 5 14 7 9 11 12 12 15 13 15 5 8 8 11 15 13 15 14 14 12 8 15 20 22 20
21 21 21 20 19 18 18 17 15 14 13 11 10 9 9 7 12 16 6 8 11 12 11 11 11 11 13 10 8 13 6 9 8 4 16 12 16 12 16 14 14 20 24 23 20
21 21 21 22 21 20 19 18 17 14 12 10 10 9 8 8 11 7 8 14 11 14 15 12 10 11 17 9 5 9 12 5 10 4 16 12 10 8 7 19 16 23 22 22 20
22 22 23 22 22 21 21 21 19 15 12 9 9 7 5 10 3 9 8 10 10 16 15 12 13 14 12 10 6 4 6 3 12 6 9 15 8 18 15 16 19 21 22 21 19
22 22 23 23 22 22 22 21 20 16 12 9 7 6 7 10 4 11 11 9 13 15 15 14 14 15 11 5 8 1 7 5 10 7 9 11 18 12 16 17 20 21 20 19 17
22 22 22 22 22 21 21 21 19 17 12 9 6 6 9 13 6 9 14 15 16 17 16 15 12 8 7 4 7 6 2 5 12 10 9 14 14 15 15 18 20 19 18 18 17
22 22 22 23 24 23 22 21 19 16 8 7 7 7 11 4 3 10 14 16 15 17 13 14 5 10 5 7 1 5 14 9 12 14 10 16 11 20 16 17 18 18 16 16 16
23 23 22 23 23 24 23 22 18 9 5 6 6 11 6 4 6 11 16 13 12 10 10 6 8 15 12 5 10 13 13 16 12 14 11 12 5 18 17 16 16 17 15 15 16
23 23 24 24 24 24 22 21 16 7 6 6 8 10 7 4 12 13 13 14 13 10 9 4 12 15 12 13 15 10 13 8 14 13 13 8 13 17 18 16 16 15 15 15 16
24 24 24 25 24 24 25 17 6 6 8 10 10 9 10 12 16 15 13 12 15 13 10 13 10 13 13 15 14 13 13 10 15 12 9 11 20 16 15 17 15 16 16 16 16
24 25 25 26 25 24 18 7 8 9 13 14 7 9 9 12 13 15 14 14 16 14 15 17 13 16 19 16 10 6 5 8 8 17 13 14 20 17 16 16 15 16 16 16 16
24 25 26 27 26 25 10 10 9 7 10 19 14 14 2 14 14 18 18 16 16 17 20 12 16 17 18 13 8 9 7 8 8 12 11 10 9 21 16 16 17 16 16 17 17
24 25 26 29 29 10 10 14 10 10 9 16 17 17 14 17 13 20 23 21 18 20 20 15 18 14 8 9 12 15 13 10 11 9 13 13 13 13 18 14 17 17 17 18 18
24 24 25 31 9 10 9 4 6 8 8 15 16 14 21 16 16 20 23 16 14 19 15 17 6 8 12 18 18 17 13 1 7 10 14 17 12 18 17 16 16 19 20 18 19
24 24 22 14 15 8 7 7 10 6 9 18 21 13 19 20 15 24 22 18 16 15 13 16 12 15 16 15 18 10 13 10 11 14 15 17 10 11 14 19 16 16 20 21 20
25 23 22 9 12 15 14 10 8 10 13 9 12 19 24 21 18 22 22 22 15 17 14 15 12 16 16 16 15 10 5 6 10 14 14 11 11 12 17 16 17 22 21 21 22
29 28 15 11 6 5 8 9 10 14 12 10 20 22 26 20 22 22 26 24 19 16 16 19 13 13 15 18 11 10 13 10 11 12 12 8 6 8 9 3 2 5 5 21 21
31 35 10 13 10 13 9 12 17 16 23 2 17 22 28 25 25 21 24 23 24 21 15 17 19 22 13 15 14 16 19 13 7 10 10 9 7 4 5 5 3 7 9 11 19
35 9 10 11 14 8 10 17 20 22 16 18 11 16 25 25 24 23 26 25 25 23 21 17 20 21 19 20 18 15 17 16 11 6 9 8 9 4 4 6 2 4 7 16 18
11 11 13 11 11 10 12 21 23 25 22 14 18 18 22 28 27 26 25 25 25 27 22 8 14 21 16 19 17 13 12 11 8 12 8 8 4 5 8 3 3 2 3 7 13
8 7 9 10 9 11 17 24 28 26 9 13 18 18 20 22 26 23 23 19 25 25 21 19 13 18 17 16 15 13 12 10 15 10 11 8 5 16 12 7 2 2 3 5 13
7 9 7 10 12 12 18 28 22 26 17 17 19 19 17 21 24 25 24 24 19 24 26 22 11 13 21 18 20 20 21 19 11 12 7 12 2 15 13 10 3 5 4 2 8
7 11 9 10 11 16 21 25 27 24 18 18 21 16 17 15 19 23 25 22 16 24 23 20 16 14 17 15 11 13 18 17 16 13 11 8 5 8 9 6 6 2 3 5 7
7 7 9 10 15 22 18 23 25 26 17 22 20 22 15 15 17 13 24 16 17 17 4 18 18 18 15 15 16 20 19 16 17 11 12 13 13 13 14 7 6 3 3 5 7
7 8 6 6 15 19 20 16 23 22 18 22 17 19 17 16 18 18 19 17 15 10 12 18 20 19 22 18 19 21 22 20 18 16 15 13 14 5 13 8 6 1 2 5 7
9 7 8 14 15 14 17 17 18 23 22 17 21 20 21 19 17 14 21 16 18 17 16 19 12 20 20 19 20 11 16 18 19 19 16 17 17 7 10 8 3 4 5 7 8
7 10 7 11 12 12 13 17 21 20 17 16 15 21 21 22 17 11 10 13 14 17 20 19 15 15 18 17 16 14 17 18 17 16 14 16 13 5 12 6 4 4 6 8 9
Wind_Direction
358 356 352 351 348 344 343 344 341 333 325 314 305 298 296 290 279 217 241 93 166 160 211 213 222 237 238 255 246 262 269 77 71 90 108 130 92 85 114 111 66 95 134 128 138
355 353 350 348 347 341 337 337 338 331 322 311 299 293 288 291 260 254 170 122 139 169 213 201 216 224 234 235 249 249 73 54 28 38 98 92 93 143 113 113 109 99 115 133 145
353 350 349 346 344 341 335 332 332 328 318 305 291 281 276 267 263 226 118 139 171 195 242 238 269 237 244 241 191 278 80 125 110 66 117 112 124 141 142 116 134 135 137 146 151
352 348 345 343 341 338 335 331 327 323 314 301 285 268 251 236 277 79 142 144 180 212 236 227 234 226 233 204 194 228 91 16 110 152 124 106 133 67 55 89 131 137 144 149 160
349 346 342 340 338 335 332 329 323 316 307 297 276 221 219 214 244 120 141 148 184 211 220 217 226 232 236 154 197 155 108 164 147 169 118 126 93 85 85 101 126 138 149 155 159
345 342 340 337 335 332 330 328 322 312 294 280 245 196 241 248 75 129 171 169 189 206 215 221 229 262 282 213 267 91 194 131 158 140 142 119 120 114 109 121 133 147 155 161 156
341 339 337 335 333 330 330 327 322 312 273 254 220 243 259 325 112 149 166 182 192 207 206 220 257 226 223 195 171 190 214 152 155 159 177 130 168 105 131 134 144 155 161 158 159
339 337 336 333 330 327 327 323 315 311 251 224 219 249 283 118 160 165 178 187 185 233 237 193 239 261 250 65 216 230 252 168 151 172 157 155 80 132 145 144 153 157 158 162 165
337 336 335 332 329 325 323 317 296 273 244 216 231 233 219 135 191 186 184 178 182 197 226 165 245 235 200 224 219 208 207 159 147 192 160 198 171 145 160 156 151 161 162 172 171
335 335 332 330 327 325 320 298 309 257 219 217 267 250 193 201 181 182 193 182 183 182 179 213 222 226 229 222 234 177 234 167 156 191 187 215 128 153 168 162 160 160 168 175 176
335 333 331 327 325 324 318 205 206 190 220 242 198 251 139 129 154 184 180 189 189 191 200 206 218 214 218 231 294 330 245 177 183 163 204 210 146 157 174 171 169 161 172 178 176
334 332 329 325 320 320 280 259 35 347 288 215 244 233 234 164 179 182 182 187 193 199 214 180 227 222 237 229 216 246 217 216 201 149 227 218 198 154 177 193 168 172 177 175 179
332 331 330 322 319 283 261 286 320 324 262 240 206 211 194 203 201 174 188 206 193 208 203 217 208 235 200 216 216 215 228 187 200 185 220 253 196 161 170 204 173 181 177 181 180
329 329 331 328 291 341 272 57 270 293 271 201 196 213 197 204 218 175 201 210 200 212 199 233 172 180 205 209 214 204 229 314 207 190 214 214 244 191 191 194 204 184 175 191 177
325 325 325 320 311 270 17 300 312 244 257 169 174 189 185 197 162 178 194 210 219 217 207 210 182 201 205 215 203 275 152 218 221 222 261 175 256 205 198 186 199 213 189 188 183
320 319 325 280 206 263 302 288 258 232 235 162 137 180 177 201 209 172 188 221 236 217 209 235 202 201 216 208 205 137 202 219 250 254 235 248 217 186 192 200 202 196 202 189 181
316 311 298 293 244 37 294 237 221 239 226 177 178 192 196 189 190 183 189 200 210 210 200 222 191 216 228 203 202 189 206 207 216 217 240 165 246 292 329 40 5 309 290 185 189
316 308 248 212 231 249 252 222 239 218 239 81 188 195 205 193 203 183 193 200 214 212 195 205 198 205 195 208 192 212 222 240 224 235 152 148 229 243 46 33 242 247 255 241 195
313 280 241 228 218 243 230 220 217 239 216 239 218 205 202 206 202 189 203 208 202 216 237 196 223 184 196 219 196 196 237 264 297 273 285 181 156 230 151 242 209 290 240 242 192
312 287 252 168 171 199 227 232 229 240 261 259 239 222 208 208 199 193 201 204 209 214 230 220 215 179 197 210 222 269 191 230 236 275 222 199 157 131 160 139 90 231 229 219 201
261 262 104 162 186 210 221 225 229 249 231 251 243 247 231 210 202 210 211 210 211 201 216 244 240 175 183 212 202 213 234 254 273 227 254 219 182 111 124 105 42 129 106 214 192
290 248 123 179 207 217 223 230 231 226 225 235 272 280 255 222 216 210 214 214 200 215 201 226 209 235 187 204 228 221 211 231 237 227 268 299 57 138 144 144 150 2 113 223 232
276 288 158 217 231 227 222 235 236 232 232 238 236 245 258 264 238 218 231 215 180 216 203 204 235 211 219 187 206 239 245 220 220 254 252 246 181 128 125 154 156 311 275 196 228
274 259 203 200 257 273 249 217 229 232 232 236 233 240 231 247 253 234 215 207 180 214 140 202 222 234 224 198 201 208 234 234 252 225 229 226 239 173 178 190 132 193 248 252 219
245 256 27 235 219 236 249 248 224 221 210 243 237 243 236 234 230 217 236 169 191 142 193 215 221 221 243 252 214 201 207 225 222 241 259 272 287 358 130 158 128 90 227 257 242
291 328 345 293 289 285 233 246 251 224 221 213 233 224 237 249 245 211 238 181 192 172 214 212 212 235 245 238 257 239 255 214 223 227 243 257 262 101 115 117 173 204 235 251 245
340 293 264 288 263 246 243 237 239 254 223 225 216 226 240 223 259 325 308 231 185 192 212 205 223 211 236 231 240 244 248 256 258 261 234 252 277 241 133 161 199 258 295 298 283